RH
11 10 10 10 10 10 9 9 9 9 9 8 8 8 8 8 8 8 8 8 8 8 8 8 8 8 9 9 8 8 8 7 7 7 6 6 6 6 6 6 5 6 6 6 7 7 7 7 6 6 6 7 7 8 9 10 10 11 11 11 11 11 11
9 9 9 9 9 8 8 9 8 8 8 8 8 8 8 8 8 8 8 8 8 8 8 8 8 8 8 8 8 7 7 7 7 7 6 6 6 6 6 6 5 5 5 6 7 7 7 6 6 5 5 5 5 6 6 7 8 9 9 10 10 10 11
8 8 8 8 8 8 8 8 8 8 8 8 7 7 7 7 7 6 6 6 6 6 7 7 6 7 7 7 7 6 6 6 6 6 6 5 6 6 6 6 5 5 5 5 6 7 7 6 6 6 5 5 5 4 5 5 5 6 7 7 9 9 10
8 8 8 8 8 8 7 7 7 7 7 6 6 6 6 6 6 6 6 6 6 6 6 6 6 6 6 6 6 5 6 6 5 5 5 4 5 5 5 5 4 4 4 4 5 6 6 6 6 6 5 5 5 4 5 5 5 5 5 5 6 7 8
7 7 7 7 6 6 6 6 6 6 6 6 6 5 6 6 5 5 5 5 5 5 5 5 5 5 6 5 5 5 5 5 5 5 4 4 4 4 4 4 3 3 3 4 4 4 5 5 5 5 5 5 5 5 5 5 5 5 5 5 5 5 6
6 6 6 6 6 6 6 6 6 6 6 5 6 5 5 5 5 5 5 5 4 5 5 5 5 5 5 5 5 5 5 4 4 4 4 4 4 4 4 3 3 3 3 3 4 4 4 4 4 4 5 4 4 4 4 5 5 5 5 5 5 5 5
6 6 6 6 6 6 6 6 5 5 6 5 5 5 4 5 5 4 5 5 4 4 4 4 4 4 4 4 5 4 4 4 4 4 4 3 4 4 3 3 3 3 3 3 3 4 4 4 4 4 4 4 4 4 4 4 5 5 5 5 5 5 5
6 6 6 6 6 6 5 6 5 5 5 5 5 5 5 5 5 5 4 4 4 4 4 4 4 4 4 4 4 4 4 4 4 3 4 3 4 4 3 3 3 3 3 3 3 3 3 3 3 3 4 3 3 4 4 4 4 4 5 5 5 6 5
6 6 6 6 6 6 5 5 5 5 5 5 5 5 4 4 4 4 4 3 4 4 3 4 3 4 4 4 4 4 4 4 3 3 3 3 3 3 3 3 3 3 3 3 3 3 3 3 3 3 3 3 3 3 4 4 4 4 4 4 5 5 5
6 6 6 5 5 5 5 5 5 5 5 4 4 4 3 3 3 3 3 3 3 3 3 3 3 3 3 3 3 3 3 3 3 3 3 3 3 3 2 2 2 2 2 2 3 3 3 3 3 3 3 3 3 3 3 3 4 4 4 4 5 5 5
5 5 5 5 5 5 5 5 4 4 3 3 3 3 2 3 3 3 3 3 3 3 3 3 2 2 2 2 2 2 2 3 2 2 2 2 2 2 2 2 2 2 2 2 2 2 2 3 3 3 3 3 3 3 3 3 3 3 4 4 4 5 4
5 6 6 5 5 5 4 4 3 3 3 3 3 3 2 2 3 3 3 3 3 3 3 2 2 2 2 2 2 2 2 2 2 2 2 2 2 2 2 2 2 2 2 2 2 2 2 2 2 3 3 3 3 3 3 3 3 3 4 4 4 4 4
6 6 6 5 4 4 3 3 3 3 3 3 3 3 3 3 3 3 3 3 3 2 2 2 2 2 2 2 2 2 2 2 2 2 2 2 2 2 2 3 2 3 3 2 3 2 2 2 2 2 2 2 2 3 3 3 3 3 3 4 4 4 4
5 5 4 4 3 3 3 3 3 3 3 3 3 3 3 3 3 3 3 3 3 2 2 2 2 2 2 2 2 2 2 2 2 2 2 2 3 2 3 3 3 3 3 2 3 3 2 3 2 2 2 2 2 2 3 3 3 3 4 4 4 4 4
4 4 3 3 3 3 3 4 3 3 3 3 3 3 3 3 3 3 3 3 3 2 2 2 2 2 2 2 2 2 2 2 3 3 2 2 3 3 3 3 3 3 3 3 2 3 2 2 2 2 2 2 2 2 2 3 3 3 4 4 4 4 4
4 3 3 3 3 3 4 4 3 3 3 3 3 3 3 3 3 3 3 3 3 2 2 2 2 2 2 2 2 2 2 2 2 2 3 3 3 3 3 3 3 3 3 3 2 2 2 2 2 2 2 2 2 2 2 3 3 3 4 4 4 4 4
3 3 3 3 3 4 4 3 3 3 3 3 3 3 3 3 3 3 3 3 3 3 2 2 2 2 2 3 3 3 2 3 3 3 3 2 3 3 3 3 3 3 3 3 2 2 2 2 2 2 2 2 2 2 2 2 3 4 4 4 4 3 4
3 3 3 4 4 3 3 3 3 3 3 3 3 3 3 3 3 3 3 3 3 2 3 2 2 3 3 2 3 3 2 2 3 3 3 3 3 3 3 3 3 3 3 3 2 2 2 2 2 2 2 2 2 2 2 2 3 4 3 4 4 3 4
3 4 4 4 3 3 3 3 3 3 3 3 2 3 3 3 3 3 2 2 3 2 2 3 2 2 3 3 3 3 2 3 3 3 3 3 3 3 3 3 3 3 3 2 2 2 2 2 2 2 2 2 2 2 3 3 3 3 3 3 4 4 4
3 3 4 3 3 3 3 3 3 3 3 3 3 3 3 3 2 2 2 2 2 2 2 2 3 2 3 3 3 3 3 3 3 3 3 3 3 3 3 3 3 3 3 3 2 2 3 2 2 2 2 3 3 2 3 3 3 3 3 3 3 4 4
3 3 3 3 3 3 3 3 3 3 3 3 3 3 3 3 2 2 3 2 2 2 2 2 2 3 3 3 3 3 3 3 3 3 3 3 3 3 3 3 3 3 2 3 3 3 3 3 3 3 3 3 3 3 3 3 3 3 3 3 3 4 4
3 4 3 3 3 3 3 3 3 3 3 3 3 3 3 3 2 2 3 2 2 2 2 2 3 3 3 3 3 3 3 3 4 3 3 3 3 3 3 3 3 3 3 3 3 3 3 3 3 3 3 3 3 3 3 3 3 3 3 3 3 3 3
3 4 3 3 3 3 3 3 3 3 3 3 3 3 3 3 3 2 2 2 2 2 2 3 3 3 3 3 3 3 3 3 4 4 3 3 3 3 3 3 3 3 3 3 3 3 3 3 3 3 3 3 3 3 4 3 3 3 3 3 3 3 3
3 4 3 3 3 3 3 3 3 3 3 3 3 3 3 3 2 2 3 2 3 3 3 3 3 3 3 3 3 3 3 3 4 4 3 3 3 3 3 3 3 3 3 3 3 3 3 3 3 3 3 3 3 3 3 3 3 3 3 3 3 3 3
3 3 3 3 3 3 3 3 3 3 3 3 3 3 2 3 2 2 3 3 3 3 3 3 3 3 3 3 3 3 3 4 4 3 3 3 3 3 4 3 3 3 3 3 3 3 3 3 3 3 3 3 3 3 3 3 3 3 3 3 3 3 3
3 3 3 3 3 3 3 3 3 3 3 3 3 3 2 3 3 2 3 3 3 3 3 3 3 3 3 3 3 3 3 4 4 4 3 3 4 4 4 4 4 4 3 4 3 3 3 3 3 4 3 3 4 4 3 3 3 3 3 3 3 3 3
3 3 3 3 3 3 3 3 3 3 3 3 3 3 3 3 3 3 3 3 3 3 3 3 3 3 3 3 3 4 4 4 4 3 3 4 4 4 4 4 4 4 3 4 4 3 3 3 3 4 4 4 4 4 3 3 3 3 3 3 3 3 3
3 3 3 3 3 3 3 3 3 3 3 3 3 3 3 3 3 3 3 3 3 3 3 3 3 3 3 3 3 4 4 4 4 4 4 4 5 5 4 4 4 4 4 4 4 3 3 4 4 4 4 4 4 4 3 3 3 3 3 4 4 4 4
3 3 3 3 3 3 3 3 3 3 3 3 3 3 3 3 3 3 3 3 3 3 3 3 3 3 3 3 4 4 4 4 4 4 4 5 5 5 5 4 4 4 4 4 4 4 4 4 4 4 4 4 4 4 4 3 3 3 4 4 4 4 4
3 3 3 3 3 3 3 3 3 3 3 3 3 3 3 3 3 3 3 3 3 3 3 3 3 3 4 4 4 4 4 4 4 4 5 5 5 5 5 5 4 4 4 4 4 4 4 4 4 4 4 4 4 4 4 4 4 4 4 5 5 5 4
3 3 3 3 3 3 3 3 3 3 3 3 3 3 3 3 3 3 3 3 3 3 3 3 4 4 4 4 4 4 4 4 4 5 5 5 5 5 5 4 4 4 4 4 4 4 4 4 4 4 4 4 4 4 4 4 4 4 5 5 5 5 4
3 3 3 3 3 3 3 3 3 4 3 3 3 3 3 3 4 4 4 4 3 4 4 4 4 4 4 4 4 4 4 5 5 5 5 5 5 5 5 5 4 4 4 4 4 4 4 4 4 5 5 4 4 4 4 4 4 4 5 5 5 5 5
3 3 3 3 3 3 4 4 3 4 4 3 4 4 4 4 4 4 4 4 4 4 4 4 4 4 4 5 5 4 5 5 5 5 5 5 5 5 5 5 4 4 4 4 4 4 4 4 4 5 5 5 5 4 4 4 4 5 5 5 6 5 6
3 3 3 4 4 4 4 4 4 4 4 4 4 4 4 4 4 4 4 4 4 4 5 5 5 5 5 5 5 5 5 5 5 5 5 5 5 5 5 5 5 4 4 4 4 4 4 4 5 5 5 5 5 4 5 5 5 6 6 6 6 6 6
3 4 4 4 4 4 4 4 4 4 4 4 4 4 4 4 4 4 4 4 4 5 5 5 5 5 5 5 5 5 5 5 5 5 5 5 5 5 5 5 5 5 4 4 4 4 5 5 5 5 5 5 5 5 5 5 5 6 7 7 7 7 7
3 4 4 4 4 4 4 4 4 4 4 4 4 4 4 4 4 4 4 4 5 5 5 5 5 5 5 5 5 5 6 6 6 6 6 6 6 6 5 5 5 5 5 5 5 5 5 5 5 5 5 5 6 6 6 6 7 7 8 8 8 8 7
Wind_Speed
107 106 106 106 107 107 108 108 109 109 110 110 110 110 110 110 110 110 110 111 111 112 113 114 114 115 116 119 121 122 123 124 125 126 126 124 123 125 126 127 128 126 124 127 133 136 136 138 140 141 141 140 139 140 140 140 140 138 137 136 136 136 135
106 106 105 105 105 106 106 106 106 107 107 107 107 107 107 107 108 107 107 107 107 107 109 110 111 111 112 115 118 119 120 121 121 122 122 120 119 121 124 125 125 123 121 123 129 133 133 133 135 135 134 134 134 134 135 136 136 136 136 135 134 134 134
104 104 104 104 104 104 104 104 104 104 104 104 104 104 104 104 104 104 103 103 103 103 105 106 107 108 109 112 114 116 116 117 118 119 119 117 115 117 120 122 122 119 117 118 123 128 130 129 130 131 130 129 128 129 129 129 129 131 132 132 132 132 132
103 102 102 102 102 101 101 101 101 101 101 101 101 100 100 100 101 100 100 100 100 100 102 104 105 105 106 109 111 113 114 115 116 117 117 115 112 114 116 118 118 115 113 114 117 121 123 124 125 127 127 125 124 123 123 123 123 125 126 127 128 128 128
102 101 100 99 99 99 98 98 98 98 98 98 98 98 97 97 98 98 98 98 98 99 100 101 102 103 104 107 109 111 112 113 115 116 116 113 110 111 113 114 113 111 110 111 112 114 117 118 119 122 123 122 120 119 118 118 119 120 121 122 123 124 124
101 100 99 98 98 98 98 97 97 97 97 97 97 97 96 96 96 96 96 96 97 97 98 99 100 101 102 105 107 110 111 112 114 115 114 110 107 109 111 111 108 107 107 107 107 109 112 113 113 115 117 117 116 115 114 114 114 115 116 117 119 120 121
101 101 100 99 98 98 98 97 97 96 96 96 96 95 95 94 94 94 95 95 96 96 97 98 98 99 101 103 105 108 109 111 112 112 111 107 105 107 109 108 105 104 104 103 103 105 108 109 109 110 112 112 111 109 109 109 110 112 112 113 115 117 119
101 101 101 100 99 98 97 97 96 96 95 95 94 94 94 94 94 94 94 94 95 95 96 96 96 97 98 100 102 105 107 109 110 109 107 104 102 105 107 105 102 101 101 100 101 102 104 106 107 107 107 107 106 104 104 106 108 109 109 109 111 114 116
101 100 100 99 98 97 96 95 94 94 94 93 93 93 93 93 93 93 92 92 92 93 93 93 93 93 95 97 99 102 104 106 107 106 103 100 100 103 104 100 98 98 98 97 98 99 101 103 104 104 104 103 101 100 101 103 105 105 105 105 107 111 114
99 98 97 96 95 94 94 93 92 92 92 92 92 92 92 92 91 91 90 89 88 89 89 90 91 91 92 94 96 99 101 103 103 101 98 96 98 100 98 95 94 94 93 94 95 96 99 100 101 102 101 100 99 98 98 99 100 101 102 103 105 109 111
96 96 95 94 92 91 91 91 91 91 91 91 91 91 90 88 87 87 86 85 85 85 86 88 89 89 90 90 92 95 97 98 98 95 93 93 94 94 91 90 90 89 89 90 91 93 96 97 98 99 99 97 96 96 96 95 96 97 100 101 103 106 108
95 94 94 93 92 91 90 90 91 90 90 90 90 89 87 85 82 81 81 81 81 82 83 85 87 87 86 86 88 91 92 93 92 90 89 89 89 88 87 86 86 86 86 87 89 91 93 94 96 96 95 94 94 94 93 92 92 94 96 99 101 104 105
94 93 93 92 91 89 88 88 89 88 88 88 87 85 84 82 79 76 75 77 78 79 81 82 83 84 83 83 85 86 87 87 86 86 86 85 84 83 83 83 83 83 84 84 86 88 90 92 93 93 93 92 92 92 90 88 88 90 93 97 100 102 102
92 91 91 90 88 86 85 85 85 85 85 85 83 82 81 79 76 73 73 74 76 77 78 79 80 81 81 81 81 82 82 82 82 83 82 80 79 79 80 80 80 80 80 82 83 86 88 89 90 90 90 90 90 89 86 84 85 87 91 95 98 100 99
88 88 87 86 84 82 80 81 82 82 82 81 80 79 78 76 73 72 72 73 74 75 76 76 77 78 77 77 77 77 77 77 78 78 77 75 75 76 76 76 76 77 78 79 81 83 85 86 87 88 88 87 86 85 83 82 83 85 90 94 97 99 98
84 84 82 81 80 78 77 78 79 79 78 77 76 75 74 72 71 71 71 71 72 72 73 73 74 73 73 72 72 73 73 72 72 73 72 72 72 73 73 73 73 74 75 76 78 80 82 83 83 84 85 84 83 83 81 80 82 85 90 94 97 98 97
81 80 78 76 75 75 75 75 76 76 74 74 73 71 70 69 69 70 70 69 69 69 69 69 69 69 68 68 68 68 68 68 68 69 69 68 69 69 69 69 70 71 71 73 76 78 79 79 80 80 81 81 80 80 79 79 82 87 91 95 96 96 95
78 76 76 74 73 73 72 72 73 73 72 70 69 67 67 67 68 68 67 66 66 66 66 66 65 65 64 64 65 65 64 64 64 65 65 65 65 65 66 67 68 68 69 71 74 75 76 76 76 77 77 77 76 76 76 77 82 88 91 94 94 94 93
73 71 72 73 72 70 68 68 70 70 69 67 66 65 65 66 66 65 64 64 64 63 63 63 62 62 61 61 62 62 61 60 61 62 62 61 61 62 64 66 66 66 67 69 71 71 72 72 72 72 72 72 73 73 74 76 82 87 90 91 92 91 92
67 66 69 71 69 66 65 65 66 67 66 65 63 63 62 63 63 63 62 61 61 61 61 60 60 59 58 58 58 58 58 57 57 59 59 58 59 61 62 63 63 64 65 66 67 67 68 68 67 66 66 67 69 71 73 77 82 86 88 89 89 90 92
62 63 66 67 65 62 61 62 63 63 63 61 60 60 59 60 60 59 59 58 58 58 58 57 56 55 54 55 55 55 54 54 54 56 56 57 58 60 60 60 61 62 62 63 63 64 65 65 64 64 65 67 69 71 74 79 83 86 88 89 88 89 91
59 61 64 63 60 58 59 59 59 59 59 58 57 57 57 57 56 56 56 56 56 55 54 53 52 51 50 51 51 52 52 52 53 55 55 56 57 57 57 58 59 60 60 61 62 63 63 64 63 64 66 68 70 72 75 79 83 85 87 87 87 88 89
57 60 60 59 56 55 56 57 56 55 55 54 54 54 54 54 53 52 53 52 51 50 49 48 47 46 47 48 49 51 52 52 53 55 55 55 55 55 56 57 58 58 59 60 61 62 62 63 63 64 66 68 70 73 76 79 81 83 84 84 85 85 85
55 57 57 55 53 53 54 53 52 51 51 51 52 52 52 51 50 49 49 47 46 46 46 46 46 46 47 49 50 51 52 52 53 54 53 53 53 54 55 56 57 58 59 59 60 61 62 62 63 65 66 68 70 73 76 77 78 79 79 80 80 81 82
54 55 54 52 50 50 50 49 48 48 48 48 49 49 49 48 47 46 45 44 44 45 46 46 47 47 48 49 50 50 51 51 52 52 52 52 53 54 55 56 56 57 58 60 61 62 62 63 63 65 66 67 68 70 71 72 73 73 74 75 76 77 79
52 52 51 48 47 47 46 46 46 45 45 46 47 47 47 46 45 43 42 42 43 44 44 44 44 45 45 46 47 48 49 50 51 51 51 50 52 53 54 55 56 57 59 60 61 62 62 62 62 63 64 64 65 67 69 69 70 70 71 72 73 75 78
49 49 48 46 45 45 44 43 43 43 43 44 44 44 44 43 42 41 41 41 42 42 42 42 42 42 43 44 45 47 48 49 50 50 49 49 50 52 53 54 56 57 59 60 60 60 60 59 60 61 61 62 64 67 68 68 68 69 69 69 72 75 79
46 46 46 44 43 43 41 41 41 41 41 42 41 42 41 40 39 40 40 40 40 40 40 40 41 42 43 44 45 46 47 48 49 47 47 48 50 52 52 53 55 57 58 58 58 58 58 58 59 60 61 62 65 66 67 67 67 66 66 68 72 76 78
44 43 43 41 41 40 39 38 39 38 39 40 39 39 38 37 37 38 38 39 39 39 39 40 40 41 42 43 44 45 46 46 46 45 46 48 50 51 52 53 55 56 57 57 56 56 57 58 59 59 60 62 64 65 64 65 65 64 65 68 71 74 76
43 41 41 39 38 38 37 36 37 36 36 37 37 36 35 35 35 36 36 37 37 37 38 39 39 39 40 41 42 43 44 44 44 44 46 48 49 51 52 53 55 56 55 55 55 55 56 57 57 58 60 61 62 62 63 63 64 64 65 68 71 73 75
42 39 39 38 36 36 35 35 35 35 34 34 34 34 34 33 33 34 35 35 36 36 36 37 37 37 38 39 40 41 42 42 43 44 46 48 49 51 52 53 54 54 54 53 54 54 55 55 56 57 59 60 61 61 62 63 63 64 66 69 71 72 73
40 38 37 36 35 34 34 33 33 33 32 32 32 32 32 32 32 32 33 34 35 35 35 35 35 36 36 37 39 40 41 41 42 44 47 49 49 50 50 51 52 52 52 52 53 54 54 55 56 57 59 60 60 61 62 62 63 64 66 69 70 70 70
37 36 35 34 34 33 32 32 32 31 30 30 30 30 31 31 31 32 32 33 33 33 33 34 34 34 35 36 38 39 41 42 43 45 47 48 48 48 48 49 50 50 51 51 52 52 53 54 56 57 58 58 59 60 61 61 62 63 65 67 67 67 67
35 34 33 33 32 31 31 31 30 29 29 28 29 29 30 30 31 31 32 32 31 31 32 33 33 33 34 36 38 39 41 42 43 44 45 45 45 45 45 46 47 48 48 49 50 51 52 54 55 56 56 57 57 58 59 59 60 61 63 65 65 65 66
34 32 31 31 31 30 30 29 28 28 27 27 28 28 29 29 30 31 31 31 31 31 32 32 32 33 34 35 36 38 39 40 41 41 41 41 41 42 43 44 45 45 46 47 48 50 51 52 53 54 54 55 55 56 57 58 59 61 62 63 63 63 64
32 31 30 29 29 29 28 28 27 26 26 27 27 28 28 29 30 30 30 30 31 31 32 32 32 32 33 35 36 37 38 38 39 39 39 39 40 40 42 42 43 44 44 45 46 48 49 50 51 51 52 53 53 54 55 57 58 59 60 61 62 62 63
Wind_Direction
278 277 276 275 275 274 273 273 272 271 271 270 269 269 268 267 266 265 265 264 264 264 263 263 262 262 261 261 260 260 259 258 258 258 257 257 256 256 255 255 254 253 251 250 251 251 250 250 250 251 250 250 249 248 248 248 248 247 247 246 245 244 243
278 277 276 276 275 274 274 273 273 272 271 271 270 270 269 268 267 266 265 265 264 264 264 263 262 261 261 260 260 260 259 259 258 258 257 257 256 255 255 255 254 253 252 250 250 250 250 250 251 251 251 250 249 248 248 247 247 247 247 246 245 245 244
279 278 277 277 276 275 275 274 273 273 272 271 271 270 269 269 268 267 266 265 264 264 263 262 261 261 260 260 260 260 259 259 259 258 257 256 255 254 254 255 255 254 253 251 250 250 250 250 251 251 251 250 249 248 248 247 247 247 246 246 245 245 244
280 279 278 278 277 276 276 275 274 274 273 273 272 271 270 269 269 267 266 265 264 263 262 262 261 261 260 260 260 259 259 259 259 258 258 256 255 254 254 254 255 255 254 252 250 250 250 250 250 250 251 250 249 249 248 247 246 246 246 245 245 244 244
281 281 280 279 279 278 277 276 276 275 274 274 273 272 270 270 269 268 267 266 264 263 262 261 261 261 260 260 259 259 259 259 258 258 258 257 256 255 255 255 255 255 254 253 252 251 250 249 249 249 250 250 249 248 248 247 246 245 245 244 244 244 243
283 283 282 281 281 280 279 278 277 277 276 275 274 273 271 270 269 268 267 266 265 263 262 261 260 259 259 259 259 259 258 258 258 258 258 258 257 256 256 256 256 255 254 253 252 251 251 250 249 248 248 249 248 248 247 246 246 245 244 243 243 243 242
284 284 283 283 282 281 280 280 279 278 277 276 275 274 273 271 270 268 267 266 264 263 261 260 259 258 258 258 258 258 258 258 258 258 258 258 257 256 256 257 256 256 255 254 253 252 251 250 249 248 248 247 247 246 246 245 245 244 243 242 241 241 241
285 284 284 283 283 282 281 281 280 279 278 277 276 274 272 271 269 268 266 265 264 263 262 261 259 258 258 257 257 257 257 258 258 258 258 257 256 256 256 256 256 255 254 253 252 251 251 250 249 248 247 247 246 245 244 243 243 242 241 240 240 240 239
285 284 284 283 282 282 281 280 279 278 277 276 274 273 271 270 268 267 266 265 265 264 263 262 260 259 258 257 256 256 256 257 257 257 257 256 255 255 256 256 255 254 253 252 251 250 249 249 248 248 247 246 245 243 242 241 241 240 240 239 238 238 238
284 283 283 282 281 281 280 279 278 277 275 274 273 272 270 270 269 269 268 267 266 265 264 263 261 259 257 256 256 256 256 256 257 257 257 256 255 255 255 255 253 253 252 251 250 249 248 248 247 247 246 245 244 242 240 239 239 239 238 238 237 237 237
284 284 283 282 281 280 280 279 278 277 276 275 273 272 271 270 270 269 269 268 266 265 264 262 260 258 257 256 255 255 255 256 256 256 256 255 254 254 254 253 252 251 250 249 248 247 247 246 246 245 245 244 242 241 239 238 237 237 237 236 236 236 236
284 284 283 282 281 280 280 279 279 278 277 276 275 274 272 271 269 269 269 268 266 264 262 261 260 258 257 256 255 254 254 255 256 256 255 254 254 254 253 252 251 250 248 247 246 245 245 244 244 244 243 242 241 240 238 236 235 235 235 235 235 236 235
284 283 282 281 281 280 280 279 279 278 277 276 275 274 273 272 271 270 269 267 265 263 261 260 259 259 257 256 255 254 254 255 255 255 254 253 253 252 251 250 249 247 246 245 244 244 243 243 242 242 242 241 240 239 237 235 234 234 234 234 234 235 234
283 282 281 281 280 280 280 279 278 277 276 276 275 275 274 273 272 271 268 266 264 262 261 260 259 258 257 256 255 255 255 254 254 253 253 253 252 251 250 248 247 246 244 243 242 242 242 241 241 240 240 239 239 238 236 234 233 232 233 233 233 233 233
282 281 281 281 281 281 280 279 278 276 276 275 275 274 273 273 272 270 268 265 263 262 260 259 258 258 257 257 256 255 255 254 253 253 252 251 250 249 248 247 245 244 243 242 241 241 240 240 239 239 238 238 237 236 235 233 232 231 231 232 232 232 232
282 281 281 281 282 282 280 279 277 276 276 275 275 274 274 273 272 269 266 264 263 262 261 260 259 259 258 257 256 255 254 253 253 252 251 250 248 248 246 245 244 243 242 241 240 240 240 239 239 238 238 237 236 235 233 231 230 230 230 231 231 231 230
283 283 283 283 283 282 280 279 278 277 277 276 275 275 274 273 271 269 267 266 264 263 262 261 260 259 259 258 257 256 254 253 252 251 250 249 247 247 245 244 243 242 241 240 240 239 239 238 238 237 237 236 235 234 232 230 229 229 229 229 229 229 229
285 286 286 285 283 281 281 280 280 279 278 277 276 275 274 272 270 269 268 267 266 264 263 262 261 260 259 258 257 255 254 253 252 251 249 248 247 246 244 243 242 240 239 239 238 238 238 237 236 236 235 234 234 233 232 230 229 229 229 228 228 228 228
286 287 287 284 282 281 281 281 280 279 278 277 276 274 273 272 271 269 268 267 266 265 264 263 261 260 258 257 256 255 254 252 251 250 248 247 245 244 242 241 240 239 238 237 237 237 237 236 236 235 234 233 232 231 229 229 229 229 229 229 228 227 227
288 287 285 283 282 282 282 280 279 278 277 276 275 274 272 271 270 269 268 267 265 264 263 262 261 259 258 257 255 254 253 251 250 248 247 245 243 241 240 239 238 237 236 236 236 236 236 235 235 234 233 231 230 229 227 227 227 228 228 228 227 227 227
289 286 283 282 282 282 281 279 277 276 276 275 274 273 272 270 269 268 267 266 264 263 262 261 260 258 257 256 254 253 251 249 247 245 244 242 240 239 238 237 237 236 235 235 234 234 234 233 232 231 229 228 227 226 226 226 226 226 226 226 226 226 226
288 285 282 282 282 281 279 277 276 276 275 275 274 272 270 269 268 267 266 264 263 262 261 261 260 258 256 254 253 251 248 245 243 241 240 239 238 237 236 235 235 234 233 233 232 232 232 231 229 228 227 226 225 224 224 225 225 225 225 225 225 225 225
287 284 283 282 282 281 279 277 276 276 275 274 273 271 269 268 267 265 264 264 263 262 261 259 257 255 252 250 249 247 244 241 239 238 237 236 236 235 234 233 233 232 232 231 231 230 230 229 228 227 226 225 224 224 224 224 224 225 225 225 225 225 224
286 284 283 282 282 280 278 278 277 276 274 273 271 270 268 267 265 264 263 263 261 259 256 253 250 247 245 243 242 241 240 239 238 237 236 235 234 233 232 231 231 230 230 230 229 229 228 227 226 225 225 224 224 224 224 225 225 225 225 226 225 225 225
286 284 283 283 282 280 279 278 277 275 274 272 270 269 268 266 264 263 262 260 258 255 252 250 247 245 244 243 242 240 239 237 236 235 235 233 232 231 231 230 229 229 228 228 227 227 226 225 225 225 224 224 224 225 226 226 226 226 226 226 225 225 225
287 285 285 284 283 281 280 278 277 275 274 272 270 269 268 266 264 262 260 257 255 253 251 249 248 246 244 243 242 241 238 236 235 234 233 232 232 231 230 229 228 228 227 226 226 226 225 224 224 224 224 224 224 224 225 225 225 224 224 224 224 224 224
287 287 286 286 284 281 280 278 277 275 273 271 270 269 268 267 265 262 258 255 253 252 250 248 245 243 241 240 239 238 236 235 234 233 232 231 231 230 230 229 228 227 227 226 226 226 225 224 224 224 223 223 223 223 223 223 223 222 222 222 222 222 222
288 288 287 286 284 282 280 278 276 275 273 272 270 269 268 266 264 261 258 255 252 250 248 245 242 240 238 237 236 235 234 234 234 233 231 230 229 229 229 228 228 228 227 227 227 226 225 224 224 223 222 222 223 223 223 222 221 220 220 220 221 221 222
290 289 287 285 283 282 280 278 277 275 273 272 270 269 267 265 263 260 257 254 251 248 246 244 241 239 238 236 236 235 234 233 233 231 230 229 229 228 228 228 228 227 227 227 227 226 225 225 224 223 222 222 223 223 222 222 220 219 219 219 220 221 221
291 289 287 286 284 282 280 279 277 275 273 271 270 268 266 264 261 258 256 253 250 247 245 242 241 239 238 237 236 235 234 232 231 229 229 229 228 228 227 227 227 227 227 227 226 226 226 225 225 224 223 223 222 222 221 221 219 218 218 219 220 220 221
291 290 288 286 284 282 280 278 276 274 272 270 268 267 265 262 259 256 254 251 249 246 243 242 239 238 236 235 235 234 233 231 230 228 228 228 227 227 226 226 227 227 227 227 226 226 225 225 224 224 223 223 222 221 220 219 218 217 217 218 219 219 220
291 290 288 286 283 281 279 277 275 274 272 270 267 265 262 259 256 253 251 249 247 244 242 240 238 236 234 233 232 231 230 229 228 227 227 227 227 226 226 226 226 227 227 227 226 226 225 224 223 223 223 222 221 220 219 218 217 216 216 218 219 219 219
291 289 287 285 283 280 278 276 275 273 271 269 266 263 259 256 252 250 247 246 245 243 240 238 237 234 233 231 230 228 227 226 226 226 226 227 227 226 226 226 227 227 226 226 226 226 224 223 223 222 222 222 221 220 219 218 217 216 217 218 218 218 218
291 289 287 284 282 280 277 275 274 272 270 267 264 260 257 253 250 248 245 243 242 240 238 236 235 232 230 229 228 227 226 226 225 226 227 227 227 227 227 227 227 227 226 226 225 225 224 223 223 222 221 221 220 220 219 218 217 216 217 217 218 217 217
291 289 286 283 281 279 277 275 273 272 269 266 261 257 254 251 248 246 244 241 239 236 235 234 232 230 229 227 226 226 226 226 226 226 227 227 227 227 227 226 226 225 225 225 224 223 223 223 222 222 221 220 219 219 218 217 216 216 216 217 217 217 217
291 289 286 283 280 278 276 274 273 271 268 264 260 256 252 249 246 244 242 239 237 235 233 232 230 228 227 226 225 225 225 225 225 225 225 225 224 225 225 224 224 223 222 222 223 222 221 221 221 220 220 218 217 217 217 217 216 216 216 216 216 216 216